Weather in Belfort

France     47˚38′28″N   6˚51′12″E
temp.,
°C
wind,
m/s
gust,
m/s
humid.,
%
clouds,
%
prec.,
mm/h
press.,
hPa
HPBL,
m
27 november, fri
fri2701:00+4˚e12682 0.0 102122
04:00+5˚e116682 0.0 102122
07:00+4˚e117160 0.0 102122
10:00+7˚e116185 0.0 102055
13:00+11˚ese125743 0.0 1018238
16:00+8˚e22640 0.0 101843
19:00+5˚ene23630 0.0 101848
22:00+4˚e23700 0.0 101959
28 november, sat
sat2801:00+4˚e23760 0.0 101860
04:00+3˚e23790 0.0 101864
07:00+2˚e23830 0.0 101867
10:00+5˚e34700 0.0 1018139
13:00+8˚e24610 0.0 1016252
16:00+5˚e23770 0.0 101575
19:00+2˚ene23780 0.0 101656
22:00+1˚ene23831 0.0 101760
29 november, sun
sun2901:00+1˚ene238723 0.0 101853
04:00ene229345 0.0 101859
07:00−1˚e229658 0.0 101966
10:00+2˚e238596 0.0 1020182
13:00+5˚ese237066 0.0 1020379
16:00+2˚ese238437 0.0 1020164
19:00−2˚e239318 0.0 102282
22:00−3˚e22910 0.0 102466
30 november, mon
mon3001:00−3˚e23920 0.0 102585
04:00−3˚e23910 0.0 102595
07:00−3˚e22870 0.0 102653
10:00+1˚e23670 0.0 1027242
13:00+4˚ese12530 0.0 1027393
16:00+1˚se117224 0.0 102734
19:00−2˚ene128336 0.0 102923
22:00−2˚ene11760 0.0 103021
1 december, tue
tue101:00−2˚nne01650 0.0 103021
04:00−2˚wnw016253 0.0 102921
07:00−1˚wnw116177 0.0 102921
10:00+2˚w1156100 0.0 102976
13:00+2˚w1171100 0.0 102872
16:00+2˚wnw1183100 0.0 102768
19:00+2˚nw1192100 0.1 102727
22:00+2˚nw1196100 0.0 102630